Time,TemperatureF,DewpointF,PressureIn,WindDirection,WindDirectionDegrees,WindSpeedMPH,WindSpeedGustMPH,Humidity,HourlyPrecipIn,Conditions,Clouds,dailyrainin,SolarRadiationWatts/m^2,SoftwareType,DateUTC
2013-04-07 00:00:00,52.0,51.3,29.85,WSW,237,4.5,10.7,97,0.00,,,-99.99,1.0,HOBO +U30 +Weather +,2013-04-07 07:00:00,
2013-04-07 00:05:00,51.9,51.3,29.85,SW,229,4.5,10.7,97,0.00,,,-99.99,1.0,HOBO +U30 +Weather +,2013-04-07 07:05:00,
2013-04-07 00:10:00,51.9,51.3,29.85,SW,223,5.6,13.4,97,0.00,,,-99.99,1.0,HOBO +U30 +Weather +,2013-04-07 07:10:00,
2013-04-07 00:15:00,52.0,51.3,29.85,SW,226,6.3,13.0,97,0.00,,,-99.99,1.0,HOBO +U30 +Weather +,2013-04-07 07:15:00,
2013-04-07 00:20:00,52.0,51.4,29.85,SW,222,6.3,10.1,97,0.00,,,-99.99,1.0,HOBO +U30 +Weather +,2013-04-07 07:20:00,
2013-04-07 00:25:00,52.0,51.4,29.85,SW,229,6.7,11.9,97,0.00,,,-99.99,1.0,HOBO +U30 +Weather +,2013-04-07 07:25:00,
2013-04-07 00:30:00,52.1,51.4,29.85,SW,232,5.1,10.1,97,0.00,,,-99.99,1.0,HOBO +U30 +Weather +,2013-04-07 07:30:00,
2013-04-07 00:35:00,52.1,51.5,29.85,SW,226,5.6,10.1,97,0.00,,,-99.99,1.0,HOBO +U30 +Weather +,2013-04-07 07:35:00,
2013-04-07 00:40:00,52.2,51.6,29.85,WSW,243,2.2,8.9,97,0.00,,,-99.99,1.0,HOBO +U30 +Weather +,2013-04-07 07:40:00,
2013-04-07 00:45:00,52.1,51.5,29.85,WSW,244,2.9,11.2,97,0.00,,,-99.99,1.0,HOBO +U30 +Weather +,2013-04-07 07:45:00,
2013-04-07 00:50:00,52.1,51.5,29.85,SW,227,3.4,10.1,97,0.00,,,-99.99,1.0,HOBO +U30 +Weather +,2013-04-07 07:50:00,
2013-04-07 00:55:00,52.0,51.5,29.85,SW,227,3.4,7.8,97,0.00,,,-99.99,1.0,HOBO +U30 +Weather +,2013-04-07 07:55:00,
2013-04-07 01:00:00,52.0,51.5,29.85,WSW,246,4.0,10.7,98,0.00,,,-99.99,1.0,HOBO +U30 +Weather +,2013-04-07 08:00:00,
2013-04-07 01:05:00,52.0,51.5,29.85,WSW,251,1.8,8.9,98,0.00,,,-99.99,1.0,HOBO +U30 +Weather +,2013-04-07 08:05:00,
2013-04-07 01:10:00,51.9,51.5,29.85,WSW,244,2.9,7.8,98,0.00,,,-99.99,1.0,HOBO +U30 +Weather +,2013-04-07 08:10:00,
2013-04-07 01:15:00,52.0,51.5,29.85,SW,227,2.2,6.3,98,0.00,,,-99.99,1.0,HOBO +U30 +Weather +,2013-04-07 08:15:00,
2013-04-07 01:20:00,52.0,51.5,29.85,SW,232,4.5,8.5,98,0.00,,,-99.99,1.0,HOBO +U30 +Weather +,2013-04-07 08:20:00,
2013-04-07 01:25:00,51.9,51.4,29.85,West,260,2.2,8.5,98,0.00,,,-99.99,1.0,HOBO +U30 +Weather +,2013-04-07 08:25:00,
2013-04-07 01:30:00,51.9,51.5,29.85,SW,232,3.4,8.5,98,0.00,,,-99.99,1.0,HOBO +U30 +Weather +,2013-04-07 08:30:00,
2013-04-07 01:35:00,51.9,51.6,29.84,SW,227,3.4,9.6,98,0.00,,,-99.99,1.0,HOBO +U30 +Weather +,2013-04-07 08:35:00,
2013-04-07 01:40:00,52.0,51.7,29.84,SW,230,2.2,7.8,98,0.00,,,-99.99,1.0,HOBO +U30 +Weather +,2013-04-07 08:40:00,
2013-04-07 01:45:00,52.0,51.7,29.84,SW,219,1.8,6.3,98,0.00,,,-99.99,1.0,HOBO +U30 +Weather +,2013-04-07 08:45:00,
2013-04-07 01:50:00,52.0,51.6,29.84,WSW,250,1.8,6.3,98,0.00,,,-99.99,1.0,HOBO +U30 +Weather +,2013-04-07 08:50:00,
2013-04-07 01:55:00,52.1,51.7,29.84,SW,236,2.9,7.4,98,0.00,,,-99.99,1.0,HOBO +U30 +Weather +,2013-04-07 08:55:00,
2013-04-07 02:00:00,52.1,51.7,29.84,WSW,239,2.9,7.8,98,0.00,,,-99.99,1.0,HOBO +U30 +Weather +,2013-04-07 09:00:00,
2013-04-07 02:05:00,52.2,51.7,29.84,SW,229,2.2,6.7,98,0.00,,,-99.99,1.0,HOBO +U30 +Weather +,2013-04-07 09:05:00,
2013-04-07 02:10:00,52.2,51.7,29.84,SW,232,2.9,5.6,98,0.00,,,-99.99,1.0,HOBO +U30 +Weather +,2013-04-07 09:10:00,
2013-04-07 02:15:00,52.2,51.6,29.83,SW,223,5.6,10.1,97,0.00,,,-99.99,1.0,HOBO +U30 +Weather +,2013-04-07 09:15:00,
2013-04-07 02:20:00,52.2,51.7,29.83,SW,225,5.6,10.1,97,0.00,,,-99.99,1.0,HOBO +U30 +Weather +,2013-04-07 09:20:00,
2013-04-07 02:25:00,52.2,51.6,29.83,SW,222,5.6,9.6,97,0.00,,,-99.99,1.0,HOBO +U30 +Weather +,2013-04-07 09:25:00,
2013-04-07 02:30:00,52.2,51.5,29.83,SW,222,5.6,9.6,97,0.00,,,-99.99,1.0,HOBO +U30 +Weather +,2013-04-07 09:30:00,
2013-04-07 02:35:00,52.2,51.6,29.83,SW,227,3.4,7.8,97,0.00,,,-99.99,1.0,HOBO +U30 +Weather +,2013-04-07 09:35:00,
2013-04-07 02:40:00,52.2,51.5,29.83,SW,230,5.1,8.5,97,0.00,,,-99.99,1.0,HOBO +U30 +Weather +,2013-04-07 09:40:00,
2013-04-07 02:45:00,52.2,51.5,29.83,SW,226,4.5,8.9,97,0.00,,,-99.99,1.0,HOBO +U30 +Weather +,2013-04-07 09:45:00,
2013-04-07 02:50:00,52.2,51.5,29.83,SW,229,5.1,8.5,97,0.00,,,-99.99,1.0,HOBO +U30 +Weather +,2013-04-07 09:50:00,
2013-04-07 02:55:00,52.2,51.5,29.83,SW,230,2.2,6.7,97,0.00,,,-99.99,1.0,HOBO +U30 +Weather +,2013-04-07 09:55:00,
2013-04-07 03:00:00,52.1,51.4,29.82,SW,222,2.9,7.4,97,0.00,,,-99.99,1.0,HOBO +U30 +Weather +,2013-04-07 10:00:00,
2013-04-07 03:05:00,52.1,51.4,29.82,SW,222,2.2,7.4,97,0.00,,,-99.99,1.0,HOBO +U30 +Weather +,2013-04-07 10:05:00,
2013-04-07 03:10:00,52.1,51.4,29.82,SW,227,3.4,6.7,97,0.00,,,-99.99,1.0,HOBO +U30 +Weather +,2013-04-07 10:10:00,
2013-04-07 03:15:00,52.2,51.4,29.82,SW,222,2.9,7.8,97,0.00,,,-99.99,1.0,HOBO +U30 +Weather +,2013-04-07 10:15:00,
2013-04-07 03:20:00,52.2,51.5,29.82,SW,225,1.8,4.5,97,0.00,,,-99.99,1.0,HOBO +U30 +Weather +,2013-04-07 10:20:00,
2013-04-07 03:25:00,52.2,51.4,29.82,SW,227,1.8,6.7,97,0.00,,,-99.99,1.0,HOBO +U30 +Weather +,2013-04-07 10:25:00,
2013-04-07 03:30:00,52.2,51.4,29.82,SW,223,1.1,4.5,97,0.00,,,-99.99,1.0,HOBO +U30 +Weather +,2013-04-07 10:30:00,
2013-04-07 03:35:00,52.2,51.5,29.82,SW,232,1.1,5.1,97,0.00,,,-99.99,1.0,HOBO +U30 +Weather +,2013-04-07 10:35:00,
2013-04-07 03:40:00,52.2,51.5,29.81,SSW,202,0.7,5.1,97,0.00,,,-99.99,1.0,HOBO +U30 +Weather +,2013-04-07 10:40:00,
2013-04-07 03:45:00,52.2,51.4,29.81,SW,218,1.8,5.1,97,0.00,,,-99.99,1.0,HOBO +U30 +Weather +,2013-04-07 10:45:00,
2013-04-07 03:50:00,52.1,51.3,29.81,SW,220,3.4,6.7,97,0.00,,,-99.99,1.0,HOBO +U30 +Weather +,2013-04-07 10:50:00,
2013-04-07 03:55:00,52.0,51.3,29.80,SW,215,2.2,6.7,97,0.00,,,-99.99,1.0,HOBO +U30 +Weather +,2013-04-07 10:55:00,
2013-04-07 04:00:00,51.9,51.2,29.80,SW,222,3.4,7.8,97,0.00,,,-99.99,1.0,HOBO +U30 +Weather +,2013-04-07 11:00:00,
2013-04-07 04:05:00,51.8,51.2,29.80,SSW,211,2.2,6.7,97,0.00,,,-99.99,1.0,HOBO +U30 +Weather +,2013-04-07 11:05:00,
2013-04-07 04:10:00,51.8,51.3,29.80,SSW,213,1.8,6.3,98,0.00,,,-99.99,1.0,HOBO +U30 +Weather +,2013-04-07 11:10:00,
2013-04-07 04:15:00,51.7,51.2,29.80,SW,220,1.8,7.4,98,0.00,,,-99.99,1.0,HOBO +U30 +Weather +,2013-04-07 11:15:00,
2013-04-07 04:20:00,51.7,51.2,29.80,SSW,208,2.9,8.5,98,0.00,,,-99.99,1.0,HOBO +U30 +Weather +,2013-04-07 11:20:00,
2013-04-07 04:25:00,51.7,51.2,29.80,SW,216,1.1,6.3,98,0.00,,,-99.99,1.0,HOBO +U30 +Weather +,2013-04-07 11:25:00,
2013-04-07 04:30:00,51.8,51.3,29.80,SSW,201,1.1,6.7,98,0.00,,,-99.99,1.0,HOBO +U30 +Weather +,2013-04-07 11:30:00,
2013-04-07 04:35:00,52.0,51.5,29.80,SW,222,1.8,5.1,98,0.00,,,-99.99,1.0,HOBO +U30 +Weather +,2013-04-07 11:35:00,
2013-04-07 04:40:00,52.0,51.5,29.80,SW,216,1.8,7.4,97,0.00,,,-99.99,1.0,HOBO +U30 +Weather +,2013-04-07 11:40:00,
2013-04-07 04:45:00,52.0,51.5,29.80,SW,227,2.2,6.3,97,0.00,,,-99.99,1.0,HOBO +U30 +Weather +,2013-04-07 11:45:00,
2013-04-07 04:50:00,52.1,51.5,29.80,SW,220,2.9,6.7,97,0.00,,,-99.99,1.0,HOBO +U30 +Weather +,2013-04-07 11:50:00,
2013-04-07 04:55:00,52.2,51.6,29.81,SW,226,3.4,7.4,97,0.00,,,-99.99,1.0,HOBO +U30 +Weather +,2013-04-07 11:55:00,
2013-04-07 05:00:00,52.2,51.6,29.80,SW,225,2.2,7.4,97,0.00,,,-99.99,1.0,HOBO +U30 +Weather +,2013-04-07 12:00:00,
2013-04-07 05:05:00,52.2,51.6,29.80,SW,219,3.4,7.4,97,0.00,,,-99.99,1.0,HOBO +U30 +Weather +,2013-04-07 12:05:00,
2013-04-07 05:10:00,52.2,51.5,29.80,SW,219,3.4,7.4,97,0.00,,,-99.99,1.0,HOBO +U30 +Weather +,2013-04-07 12:10:00,
2013-04-07 05:15:00,52.2,51.6,29.80,SW,225,4.0,8.9,97,0.00,,,-99.99,1.0,HOBO +U30 +Weather +,2013-04-07 12:15:00,
2013-04-07 05:20:00,52.2,51.6,29.80,SW,223,4.0,8.5,97,0.00,,,-99.99,1.0,HOBO +U30 +Weather +,2013-04-07 12:20:00,
2013-04-07 05:25:00,52.3,51.7,29.80,SW,219,2.2,7.4,97,0.00,,,-99.99,1.0,HOBO +U30 +Weather +,2013-04-07 12:25:00,
2013-04-07 05:30:00,52.4,51.8,29.80,SW,215,1.1,5.6,97,0.00,,,-99.99,1.0,HOBO +U30 +Weather +,2013-04-07 12:30:00,
2013-04-07 05:35:00,52.4,51.8,29.80,SSW,197,0.7,3.4,97,0.00,,,-99.99,1.0,HOBO +U30 +Weather +,2013-04-07 12:35:00,
2013-04-07 05:40:00,52.5,51.8,29.80,SSW,199,0.0,3.4,97,0.00,,,-99.99,1.0,HOBO +U30 +Weather +,2013-04-07 12:40:00,
2013-04-07 05:45:00,52.6,51.9,29.80,SSW,197,0.0,2.2,97,0.00,,,-99.99,1.0,HOBO +U30 +Weather +,2013-04-07 12:45:00,
2013-04-07 05:50:00,52.6,52.0,29.80,SW,218,0.7,3.4,97,0.00,,,-99.99,1.0,HOBO +U30 +Weather +,2013-04-07 12:50:00,
2013-04-07 05:55:00,52.7,52.1,29.80,SSW,204,0.7,3.4,97,0.00,,,-99.99,1.0,HOBO +U30 +Weather +,2013-04-07 12:55:00,
2013-04-07 06:00:00,52.7,52.1,29.80,SSW,204,0.7,2.2,97,0.00,,,-99.99,1.0,HOBO +U30 +Weather +,2013-04-07 13:00:00,
2013-04-07 06:05:00,52.7,52.1,29.80,SSW,204,0.7,3.4,97,0.00,,,-99.99,1.0,HOBO +U30 +Weather +,2013-04-07 13:05:00,
2013-04-07 06:10:00,52.8,52.1,29.79,South,187,0.0,2.2,97,0.00,,,-99.99,1.0,HOBO +U30 +Weather +,2013-04-07 13:10:00,
2013-04-07 06:15:00,52.8,52.1,29.79,SSW,202,0.0,1.8,97,0.00,,,-99.99,1.0,HOBO +U30 +Weather +,2013-04-07 13:15:00,
2013-04-07 06:20:00,52.9,52.1,29.80,SW,227,0.7,4.0,97,0.00,,,-99.99,1.0,HOBO +U30 +Weather +,2013-04-07 13:20:00,
2013-04-07 06:25:00,52.8,52.0,29.80,SSW,209,1.1,5.1,97,0.00,,,-99.99,1.0,HOBO +U30 +Weather +,2013-04-07 13:25:00,
2013-04-07 06:30:00,52.8,52.0,29.80,SW,218,0.0,2.9,97,0.00,,,-99.99,1.0,HOBO +U30 +Weather +,2013-04-07 13:30:00,
2013-04-07 06:35:00,52.7,51.9,29.80,SSW,197,0.7,4.0,97,0.00,,,-99.99,1.0,HOBO +U30 +Weather +,2013-04-07 13:35:00,
2013-04-07 06:40:00,52.6,51.9,29.80,SSW,198,0.7,2.9,97,0.00,,,-99.99,1.0,HOBO +U30 +Weather +,2013-04-07 13:40:00,
2013-04-07 06:45:00,52.6,51.9,29.80,SSW,212,0.7,3.4,97,0.00,,,-99.99,2.0,HOBO +U30 +Weather +,2013-04-07 13:45:00,
2013-04-07 06:50:00,52.6,51.8,29.80,SSW,202,1.1,4.5,97,0.00,,,-99.99,4.0,HOBO +U30 +Weather +,2013-04-07 13:50:00,
2013-04-07 06:55:00,52.6,51.8,29.80,SSW,213,1.8,4.5,97,0.00,,,-99.99,7.0,HOBO +U30 +Weather +,2013-04-07 13:55:00,
2013-04-07 07:00:00,52.6,51.9,29.80,SSW,208,0.7,4.0,97,0.00,,,-99.99,11.0,HOBO +U30 +Weather +,2013-04-07 14:00:00,
2013-04-07 07:05:00,52.7,51.9,29.80,SSW,208,1.1,4.0,97,0.00,,,-99.99,16.0,HOBO +U30 +Weather +,2013-04-07 14:05:00,
2013-04-07 07:10:00,52.7,52.0,29.81,SSW,213,1.1,4.0,97,0.00,,,-99.99,19.0,HOBO +U30 +Weather +,2013-04-07 14:10:00,
2013-04-07 07:15:00,52.8,52.0,29.81,South,188,0.7,3.4,97,0.00,,,-99.99,24.0,HOBO +U30 +Weather +,2013-04-07 14:15:00,
2013-04-07 07:20:00,52.8,51.9,29.81,SSW,208,0.7,2.9,96,0.00,,,-99.99,33.0,HOBO +U30 +Weather +,2013-04-07 14:20:00,
2013-04-07 07:25:00,53.0,52.2,29.81,SW,215,0.0,2.2,97,0.00,,,-99.99,52.0,HOBO +U30 +Weather +,2013-04-07 14:25:00,
2013-04-07 07:30:00,53.1,52.2,29.81,South,181,1.1,4.0,96,0.00,,,-99.99,92.0,HOBO +U30 +Weather +,2013-04-07 14:30:00,
2013-04-07 07:35:00,53.3,52.4,29.81,SSW,213,2.2,5.6,96,0.00,,,-99.99,64.0,HOBO +U30 +Weather +,2013-04-07 14:35:00,
2013-04-07 07:40:00,53.1,52.1,29.80,SSW,202,2.9,6.3,96,0.00,,,-99.99,59.0,HOBO +U30 +Weather +,2013-04-07 14:40:00,
2013-04-07 07:45:00,53.2,52.2,29.81,SW,219,2.9,7.8,96,0.00,,,-99.99,39.0,HOBO +U30 +Weather +,2013-04-07 14:45:00,
2013-04-07 07:50:00,53.2,52.2,29.81,SW,215,3.4,7.4,96,0.00,,,-99.99,59.0,HOBO +U30 +Weather +,2013-04-07 14:50:00,
2013-04-07 07:55:00,53.5,52.4,29.81,SW,218,2.9,7.4,95,0.00,,,-99.99,76.0,HOBO +U30 +Weather +,2013-04-07 14:55:00,
2013-04-07 08:00:00,53.7,52.5,29.80,SW,218,2.9,5.6,95,0.00,,,-99.99,88.0,HOBO +U30 +Weather +,2013-04-07 15:00:00,
2013-04-07 08:05:00,53.8,52.5,29.80,SSW,209,2.2,6.3,95,0.00,,,-99.99,98.0,HOBO +U30 +Weather +,2013-04-07 15:05:00,
2013-04-07 08:10:00,53.8,52.4,29.80,SW,220,4.0,10.1,95,0.00,,,-99.99,111.0,HOBO +U30 +Weather +,2013-04-07 15:10:00,
2013-04-07 08:15:00,53.9,52.6,29.80,SW,219,5.1,9.6,95,0.00,,,-99.99,127.0,HOBO +U30 +Weather +,2013-04-07 15:15:00,
2013-04-07 08:20:00,54.3,52.8,29.80,SW,220,4.5,8.5,94,0.00,,,-99.99,104.0,HOBO +U30 +Weather +,2013-04-07 15:20:00,
2013-04-07 08:25:00,54.5,52.9,29.80,SSW,211,2.9,5.6,94,0.00,,,-99.99,116.0,HOBO +U30 +Weather +,2013-04-07 15:25:00,
2013-04-07 08:30:00,54.4,52.7,29.80,SSW,206,4.5,8.9,93,0.00,,,-99.99,144.0,HOBO +U30 +Weather +,2013-04-07 15:30:00,
2013-04-07 08:35:00,54.7,53.0,29.80,SSW,209,4.0,7.4,93,0.00,,,-99.99,176.0,HOBO +U30 +Weather +,2013-04-07 15:35:00,
2013-04-07 08:40:00,54.8,52.9,29.80,SW,216,4.5,9.6,93,0.00,,,-99.99,182.0,HOBO +U30 +Weather +,2013-04-07 15:40:00,
2013-04-07 08:45:00,55.0,53.0,29.80,SSW,195,4.0,7.4,92,0.00,,,-99.99,132.0,HOBO +U30 +Weather +,2013-04-07 15:45:00,
2013-04-07 08:50:00,55.2,53.1,29.80,SW,222,4.5,10.7,92,0.00,,,-99.99,146.0,HOBO +U30 +Weather +,2013-04-07 15:50:00,
2013-04-07 08:55:00,55.1,53.0,29.80,SSW,202,4.5,8.9,92,0.00,,,-99.99,153.0,HOBO +U30 +Weather +,2013-04-07 15:55:00,
2013-04-07 09:00:00,55.1,53.2,29.80,SW,222,5.6,10.7,93,0.00,,,-99.99,182.0,HOBO +U30 +Weather +,2013-04-07 16:00:00,
2013-04-07 09:05:00,55.3,53.2,29.79,SW,215,4.0,7.4,92,0.00,,,-99.99,158.0,HOBO +U30 +Weather +,2013-04-07 16:05:00,
2013-04-07 09:10:00,55.5,53.4,29.79,SW,218,4.0,7.4,92,0.00,,,-99.99,198.0,HOBO +U30 +Weather +,2013-04-07 16:10:00,
2013-04-07 09:15:00,56.2,53.9,29.79,SW,216,2.9,6.7,91,0.00,,,-99.99,184.0,HOBO +U30 +Weather +,2013-04-07 16:15:00,
2013-04-07 09:20:00,56.2,53.8,29.79,SW,218,4.5,7.4,91,0.00,,,-99.99,193.0,HOBO +U30 +Weather +,2013-04-07 16:20:00,
2013-04-07 09:25:00,55.6,53.2,29.79,SSW,209,4.5,11.2,91,0.00,,,-99.99,161.0,HOBO +U30 +Weather +,2013-04-07 16:25:00,
2013-04-07 09:30:00,55.9,53.6,29.78,SSW,206,4.0,8.5,92,0.00,,,-99.99,187.0,HOBO +U30 +Weather +,2013-04-07 16:30:00,
2013-04-07 09:35:00,55.8,53.5,29.78,SW,218,5.6,10.1,91,0.00,,,-99.99,156.0,HOBO +U30 +Weather +,2013-04-07 16:35:00,
2013-04-07 09:40:00,55.4,53.3,29.78,SSW,209,5.6,13.4,92,0.00,,,-99.99,167.0,HOBO +U30 +Weather +,2013-04-07 16:40:00,
2013-04-07 09:45:00,55.3,53.7,29.78,SW,227,7.4,13.0,94,0.00,,,-99.99,183.0,HOBO +U30 +Weather +,2013-04-07 16:45:00,
2013-04-07 09:50:00,56.1,54.3,29.79,SW,223,6.3,12.3,93,0.00,,,-99.99,256.0,HOBO +U30 +Weather +,2013-04-07 16:50:00,
2013-04-07 09:55:00,55.7,53.8,29.79,SW,225,8.5,14.5,93,0.00,,,-99.99,304.0,HOBO +U30 +Weather +,2013-04-07 16:55:00,
2013-04-07 10:00:00,56.0,54.3,29.79,SW,227,7.8,14.5,94,0.00,,,-99.99,311.0,HOBO +U30 +Weather +,2013-04-07 17:00:00,
2013-04-07 10:05:00,54.9,53.6,29.80,SW,219,7.8,13.0,95,0.00,,,-99.99,233.0,HOBO +U30 +Weather +,2013-04-07 17:05:00,
2013-04-07 10:10:00,54.8,54.1,29.80,SW,216,6.3,13.0,97,0.00,,,-99.99,213.0,HOBO +U30 +Weather +,2013-04-07 17:10:00,
2013-04-07 10:15:00,55.0,54.3,29.80,SW,220,6.3,11.9,97,0.00,,,-99.99,224.0,HOBO +U30 +Weather +,2013-04-07 17:15:00,
2013-04-07 10:20:00,55.5,54.5,29.80,SW,230,5.1,9.6,96,0.00,,,-99.99,196.0,HOBO +U30 +Weather +,2013-04-07 17:20:00,
2013-04-07 10:25:00,55.0,53.9,29.80,SW,222,6.7,12.3,96,0.00,,,-99.99,186.0,HOBO +U30 +Weather +,2013-04-07 17:25:00,
2013-04-07 10:30:00,55.1,54.2,29.80,SSW,213,6.7,11.9,96,0.00,,,-99.99,194.0,HOBO +U30 +Weather +,2013-04-07 17:30:00,
2013-04-07 10:35:00,55.1,54.3,29.80,SW,218,5.6,10.7,97,0.00,,,-99.99,194.0,HOBO +U30 +Weather +,2013-04-07 17:35:00,
2013-04-07 10:40:00,55.3,54.5,29.80,SW,220,5.1,10.1,96,0.00,,,-99.99,192.0,HOBO +U30 +Weather +,2013-04-07 17:40:00,
2013-04-07 10:45:00,55.6,54.8,29.80,SW,220,5.6,10.1,97,0.00,,,-99.99,214.0,HOBO +U30 +Weather +,2013-04-07 17:45:00,
2013-04-07 10:50:00,55.1,54.2,29.80,SW,215,6.3,11.9,96,0.00,,,-99.99,211.0,HOBO +U30 +Weather +,2013-04-07 17:50:00,
2013-04-07 10:55:00,55.6,54.8,29.80,SW,227,5.6,10.7,97,0.00,,,-99.99,198.0,HOBO +U30 +Weather +,2013-04-07 17:55:00,
2013-04-07 11:00:00,54.8,54.0,29.80,SW,226,7.8,14.1,97,0.00,,,-99.99,167.0,HOBO +U30 +Weather +,2013-04-07 18:00:00,
2013-04-07 11:05:00,55.4,54.8,29.80,SW,232,5.6,13.0,97,0.00,,,-99.99,284.0,HOBO +U30 +Weather +,2013-04-07 18:05:00,
2013-04-07 11:10:00,55.5,54.6,29.80,SW,225,6.7,14.5,96,0.00,,,-99.99,184.0,HOBO +U30 +Weather +,2013-04-07 18:10:00,
2013-04-07 11:15:00,55.4,54.6,29.80,SW,218,5.6,13.0,97,0.00,,,-99.99,157.0,HOBO +U30 +Weather +,2013-04-07 18:15:00,
2013-04-07 11:20:00,55.3,54.4,29.80,SW,226,7.4,14.5,97,0.00,,,-99.99,306.0,HOBO +U30 +Weather +,2013-04-07 18:20:00,
2013-04-07 11:25:00,55.6,54.7,29.80,SW,227,7.8,15.2,96,0.00,,,-99.99,299.0,HOBO +U30 +Weather +,2013-04-07 18:25:00,
2013-04-07 11:30:00,56.7,55.5,29.79,SW,223,7.4,14.5,95,0.00,,,-99.99,374.0,HOBO +U30 +Weather +,2013-04-07 18:30:00,
2013-04-07 11:35:00,56.0,54.3,29.79,SW,225,8.9,14.5,94,0.00,,,-99.99,326.0,HOBO +U30 +Weather +,2013-04-07 18:35:00,
2013-04-07 11:40:00,56.4,55.0,29.79,SW,223,9.6,15.2,94,0.00,,,-99.99,386.0,HOBO +U30 +Weather +,2013-04-07 18:40:00,
2013-04-07 11:45:00,57.2,55.6,29.79,SW,234,7.4,14.5,94,0.00,,,-99.99,418.0,HOBO +U30 +Weather +,2013-04-07 18:45:00,
2013-04-07 11:50:00,56.1,54.7,29.79,SW,232,8.5,14.5,94,0.00,,,-99.99,344.0,HOBO +U30 +Weather +,2013-04-07 18:50:00,
2013-04-07 11:55:00,56.4,55.1,29.78,SW,226,7.8,15.2,95,0.00,,,-99.99,299.0,HOBO +U30 +Weather +,2013-04-07 18:55:00,
2013-04-07 12:00:00,56.9,55.4,29.78,SW,227,8.9,14.1,94,0.00,,,-99.99,368.0,HOBO +U30 +Weather +,2013-04-07 19:00:00,
2013-04-07 12:05:00,57.5,55.7,29.78,SW,230,6.7,13.0,93,0.00,,,-99.99,396.0,HOBO +U30 +Weather +,2013-04-07 19:05:00,
2013-04-07 12:10:00,57.6,55.5,29.78,WSW,237,4.0,11.2,92,0.00,,,-99.99,392.0,HOBO +U30 +Weather +,2013-04-07 19:10:00,
2013-04-07 12:15:00,57.9,55.7,29.78,SW,232,5.6,11.2,92,0.00,,,-99.99,528.0,HOBO +U30 +Weather +,2013-04-07 19:15:00,
2013-04-07 12:20:00,59.6,56.6,29.77,SW,223,4.5,11.9,89,0.00,,,-99.99,329.0,HOBO +U30 +Weather +,2013-04-07 19:20:00,
2013-04-07 12:25:00,59.6,56.0,29.77,SW,229,6.3,13.0,87,0.00,,,-99.99,1014.0,HOBO +U30 +Weather +,2013-04-07 19:25:00,
2013-04-07 12:30:00,61.1,56.9,29.78,West,263,2.9,10.7,86,0.00,,,-99.99,549.0,HOBO +U30 +Weather +,2013-04-07 19:30:00,
2013-04-07 12:35:00,58.4,54.3,29.78,WSW,250,3.4,13.4,86,0.00,,,-99.99,344.0,HOBO +U30 +Weather +,2013-04-07 19:35:00,
2013-04-07 12:40:00,58.0,54.8,29.78,SW,232,8.5,16.3,88,0.00,,,-99.99,532.0,HOBO +U30 +Weather +,2013-04-07 19:40:00,
2013-04-07 12:45:00,58.5,55.2,29.78,WSW,240,7.8,15.2,88,0.00,,,-99.99,784.0,HOBO +U30 +Weather +,2013-04-07 19:45:00,
2013-04-07 12:50:00,57.7,54.3,29.78,SW,236,8.5,17.0,88,0.00,,,-99.99,541.0,HOBO +U30 +Weather +,2013-04-07 19:50:00,
2013-04-07 12:55:00,57.7,54.7,29.77,SW,229,7.4,12.3,89,0.00,,,-99.99,626.0,HOBO +U30 +Weather +,2013-04-07 19:55:00,
2013-04-07 13:00:00,57.8,54.8,29.76,SW,234,7.4,11.9,89,0.00,,,-99.99,478.0,HOBO +U30 +Weather +,2013-04-07 20:00:00,
2013-04-07 13:05:00,58.0,54.5,29.76,SW,234,7.4,14.1,88,0.00,,,-99.99,513.0,HOBO +U30 +Weather +,2013-04-07 20:05:00,
2013-04-07 13:10:00,58.3,54.7,29.76,WSW,253,4.5,8.9,87,0.00,,,-99.99,471.0,HOBO +U30 +Weather +,2013-04-07 20:10:00,
2013-04-07 13:15:00,59.6,55.6,29.76,SW,236,3.4,11.2,86,0.00,,,-99.99,461.0,HOBO +U30 +Weather +,2013-04-07 20:15:00,
2013-04-07 13:20:00,58.5,54.5,29.75,WSW,247,4.5,11.9,86,0.00,,,-99.99,591.0,HOBO +U30 +Weather +,2013-04-07 20:20:00,
2013-04-07 13:25:00,59.2,55.5,29.75,WSW,251,4.5,8.9,87,0.00,,,-99.99,576.0,HOBO +U30 +Weather +,2013-04-07 20:25:00,
2013-04-07 13:30:00,57.3,53.6,29.75,WSW,258,5.6,10.7,87,0.00,,,-99.99,437.0,HOBO +U30 +Weather +,2013-04-07 20:30:00,
2013-04-07 13:35:00,58.1,54.7,29.75,WSW,240,6.7,15.2,88,0.00,,,-99.99,328.0,HOBO +U30 +Weather +,2013-04-07 20:35:00,
2013-04-07 13:40:00,58.1,54.6,29.75,WSW,248,6.7,14.1,88,0.00,,,-99.99,544.0,HOBO +U30 +Weather +,2013-04-07 20:40:00,
2013-04-07 13:45:00,58.1,53.9,29.75,SW,234,7.8,14.5,86,0.00,,,-99.99,862.0,HOBO +U30 +Weather +,2013-04-07 20:45:00,
2013-04-07 13:50:00,59.1,55.2,29.74,SW,236,9.6,15.9,86,0.00,,,-99.99,858.0,HOBO +U30 +Weather +,2013-04-07 20:50:00,
2013-04-07 13:55:00,58.2,54.1,29.73,SW,234,10.1,17.4,86,0.00,,,-99.99,679.0,HOBO +U30 +Weather +,2013-04-07 20:55:00,
2013-04-07 14:00:00,58.8,54.8,29.73,SW,236,8.9,17.4,86,0.00,,,-99.99,851.0,HOBO +U30 +Weather +,2013-04-07 21:00:00,
2013-04-07 14:05:00,59.5,55.5,29.73,WSW,239,8.5,18.1,86,0.00,,,-99.99,641.0,HOBO +U30 +Weather +,2013-04-07 21:05:00,
2013-04-07 14:10:00,58.2,54.1,29.73,SW,236,7.8,13.0,86,0.00,,,-99.99,1008.0,HOBO +U30 +Weather +,2013-04-07 21:10:00,
2013-04-07 14:15:00,58.8,54.6,29.73,SW,229,7.8,14.5,85,0.00,,,-99.99,577.0,HOBO +U30 +Weather +,2013-04-07 21:15:00,
2013-04-07 14:20:00,58.6,54.4,29.73,SW,236,6.7,13.4,86,0.00,,,-99.99,534.0,HOBO +U30 +Weather +,2013-04-07 21:20:00,
2013-04-07 14:25:00,59.1,54.5,29.72,WSW,240,6.3,14.1,84,0.00,,,-99.99,486.0,HOBO +U30 +Weather +,2013-04-07 21:25:00,
2013-04-07 14:30:00,60.0,55.2,29.72,WSW,256,4.5,12.3,83,0.00,,,-99.99,538.0,HOBO +U30 +Weather +,2013-04-07 21:30:00,
2013-04-07 14:35:00,58.1,53.4,29.72,West,260,4.5,10.7,84,0.00,,,-99.99,242.0,HOBO +U30 +Weather +,2013-04-07 21:35:00,
2013-04-07 14:40:00,57.5,53.3,29.72,West,268,5.1,13.0,86,0.00,,,-99.99,703.0,HOBO +U30 +Weather +,2013-04-07 21:40:00,
2013-04-07 14:45:00,57.8,53.7,29.72,West,263,5.6,12.3,85,0.00,,,-99.99,814.0,HOBO +U30 +Weather +,2013-04-07 21:45:00,
2013-04-07 14:50:00,58.2,54.0,29.72,WSW,256,5.6,13.0,85,0.00,,,-99.99,583.0,HOBO +U30 +Weather +,2013-04-07 21:50:00,
2013-04-07 14:55:00,59.4,54.5,29.72,WSW,247,4.5,13.0,83,0.00,,,-99.99,849.0,HOBO +U30 +Weather +,2013-04-07 21:55:00,
2013-04-07 15:00:00,59.5,53.9,29.71,WSW,250,5.1,11.9,81,0.00,,,-99.99,764.0,HOBO +U30 +Weather +,2013-04-07 22:00:00,
2013-04-07 15:05:00,59.8,54.4,29.71,SW,233,6.3,15.9,82,0.00,,,-99.99,794.0,HOBO +U30 +Weather +,2013-04-07 22:05:00,
2013-04-07 15:10:00,58.5,53.2,29.71,SW,234,8.5,15.2,82,0.00,,,-99.99,646.0,HOBO +U30 +Weather +,2013-04-07 22:10:00,
2013-04-07 15:15:00,58.5,53.4,29.71,SW,227,9.6,17.4,83,0.00,,,-99.99,772.0,HOBO +U30 +Weather +,2013-04-07 22:15:00,
2013-04-07 15:20:00,58.5,53.4,29.71,SW,236,8.9,18.6,82,0.00,,,-99.99,761.0,HOBO +U30 +Weather +,2013-04-07 22:20:00,
2013-04-07 15:25:00,58.7,53.7,29.72,WSW,247,7.4,16.3,83,0.00,,,-99.99,563.0,HOBO +U30 +Weather +,2013-04-07 22:25:00,
2013-04-07 15:30:00,57.9,53.3,29.72,WSW,247,7.8,15.9,84,0.00,,,-99.99,571.0,HOBO +U30 +Weather +,2013-04-07 22:30:00,
2013-04-07 15:35:00,57.8,53.1,29.71,WSW,239,7.8,15.9,84,0.00,,,-99.99,636.0,HOBO +U30 +Weather +,2013-04-07 22:35:00,
2013-04-07 15:40:00,58.5,53.8,29.70,SW,230,6.7,14.5,84,0.00,,,-99.99,642.0,HOBO +U30 +Weather +,2013-04-07 22:40:00,
2013-04-07 15:45:00,57.8,52.7,29.70,SW,234,8.5,14.5,82,0.00,,,-99.99,609.0,HOBO +U30 +Weather +,2013-04-07 22:45:00,
2013-04-07 15:50:00,57.4,52.6,29.70,SW,232,8.5,15.9,83,0.00,,,-99.99,482.0,HOBO +U30 +Weather +,2013-04-07 22:50:00,
2013-04-07 15:55:00,58.6,53.6,29.70,WSW,237,7.4,14.5,83,0.00,,,-99.99,601.0,HOBO +U30 +Weather +,2013-04-07 22:55:00,
2013-04-07 16:00:00,58.2,52.2,29.70,SW,236,5.6,15.9,80,0.00,,,-99.99,518.0,HOBO +U30 +Weather +,2013-04-07 23:00:00,
2013-04-07 16:05:00,58.8,53.3,29.70,WSW,237,6.3,14.5,81,0.00,,,-99.99,542.0,HOBO +U30 +Weather +,2013-04-07 23:05:00,
2013-04-07 16:10:00,58.2,52.4,29.70,WSW,240,5.6,13.4,81,0.00,,,-99.99,377.0,HOBO +U30 +Weather +,2013-04-07 23:10:00,
2013-04-07 16:15:00,56.7,51.4,29.70,WSW,246,7.4,15.9,82,0.00,,,-99.99,413.0,HOBO +U30 +Weather +,2013-04-07 23:15:00,
2013-04-07 16:20:00,57.7,52.1,29.70,SW,234,6.3,15.9,81,0.00,,,-99.99,443.0,HOBO +U30 +Weather +,2013-04-07 23:20:00,
2013-04-07 16:25:00,56.9,51.0,29.70,WSW,244,6.7,18.6,80,0.00,,,-99.99,371.0,HOBO +U30 +Weather +,2013-04-07 23:25:00,
2013-04-07 16:30:00,57.3,51.2,29.70,WSW,240,6.3,13.0,80,0.00,,,-99.99,377.0,HOBO +U30 +Weather +,2013-04-07 23:30:00,
2013-04-07 16:35:00,57.3,51.3,29.70,WSW,240,6.7,13.0,80,0.00,,,-99.99,349.0,HOBO +U30 +Weather +,2013-04-07 23:35:00,
2013-04-07 16:40:00,57.0,51.1,29.69,SW,230,7.4,13.4,80,0.00,,,-99.99,323.0,HOBO +U30 +Weather +,2013-04-07 23:40:00,
2013-04-07 16:45:00,56.2,51.2,29.69,SW,232,9.6,19.2,83,0.00,,,-99.99,427.0,HOBO +U30 +Weather +,2013-04-07 23:45:00,
2013-04-07 16:50:00,57.3,52.1,29.68,WSW,237,5.1,11.2,82,0.00,,,-99.99,451.0,HOBO +U30 +Weather +,2013-04-07 23:50:00,
2013-04-07 16:55:00,56.2,51.1,29.68,WSW,241,7.4,14.1,82,0.00,,,-99.99,454.0,HOBO +U30 +Weather +,2013-04-07 23:55:00,
2013-04-07 17:00:00,56.3,51.3,29.68,WSW,243,7.4,13.4,83,0.00,,,-99.99,268.0,HOBO +U30 +Weather +,2013-04-08 00:00:00,
2013-04-07 17:05:00,56.1,51.5,29.68,WSW,246,6.7,11.9,84,0.00,,,-99.99,312.0,HOBO +U30 +Weather +,2013-04-08 00:05:00,
2013-04-07 17:10:00,55.5,51.0,29.69,WSW,239,7.4,14.1,84,0.00,,,-99.99,286.0,HOBO +U30 +Weather +,2013-04-08 00:10:00,
2013-04-07 17:15:00,56.7,52.1,29.69,SW,234,5.1,13.0,84,0.00,,,-99.99,268.0,HOBO +U30 +Weather +,2013-04-08 00:15:00,
2013-04-07 17:20:00,56.2,51.2,29.68,WSW,239,5.1,10.7,83,0.00,,,-99.99,299.0,HOBO +U30 +Weather +,2013-04-08 00:20:00,
2013-04-07 17:25:00,55.8,51.1,29.67,WSW,237,7.4,15.9,84,0.00,,,-99.99,364.0,HOBO +U30 +Weather +,2013-04-08 00:25:00,
2013-04-07 17:30:00,55.4,51.1,29.68,SW,236,8.9,19.2,85,0.00,,,-99.99,219.0,HOBO +U30 +Weather +,2013-04-08 00:30:00,
2013-04-07 17:35:00,55.5,51.3,29.68,SW,226,7.8,14.5,85,0.00,,,-99.99,251.0,HOBO +U30 +Weather +,2013-04-08 00:35:00,
2013-04-07 17:40:00,55.7,50.8,29.67,WSW,237,6.3,14.5,83,0.00,,,-99.99,228.0,HOBO +U30 +Weather +,2013-04-08 00:40:00,
2013-04-07 17:45:00,55.3,49.7,29.67,SW,233,8.9,15.9,81,0.00,,,-99.99,217.0,HOBO +U30 +Weather +,2013-04-08 00:45:00,
2013-04-07 17:50:00,55.6,50.0,29.67,SW,234,6.3,15.2,81,0.00,,,-99.99,324.0,HOBO +U30 +Weather +,2013-04-08 00:50:00,
2013-04-07 17:55:00,55.3,49.8,29.67,SW,234,7.4,18.6,81,0.00,,,-99.99,196.0,HOBO +U30 +Weather +,2013-04-08 00:55:00,
2013-04-07 18:00:00,54.6,49.4,29.66,WSW,239,7.4,14.5,82,0.00,,,-99.99,138.0,HOBO +U30 +Weather +,2013-04-08 01:00:00,
2013-04-07 18:05:00,54.2,49.7,29.66,SW,229,7.8,17.4,84,0.00,,,-99.99,187.0,HOBO +U30 +Weather +,2013-04-08 01:05:00,
2013-04-07 18:10:00,54.4,49.6,29.66,SW,234,9.6,19.2,83,0.00,,,-99.99,144.0,HOBO +U30 +Weather +,2013-04-08 01:10:00,
2013-04-07 18:15:00,54.3,49.5,29.66,SW,232,8.9,17.4,83,0.00,,,-99.99,124.0,HOBO +U30 +Weather +,2013-04-08 01:15:00,
2013-04-07 18:20:00,54.0,49.6,29.65,SW,232,8.9,17.0,84,0.00,,,-99.99,89.0,HOBO +U30 +Weather +,2013-04-08 01:20:00,
2013-04-07 18:25:00,53.7,49.3,29.66,WSW,239,8.5,14.5,84,0.00,,,-99.99,84.0,HOBO +U30 +Weather +,2013-04-08 01:25:00,
2013-04-07 18:30:00,53.4,48.5,29.66,SW,232,10.1,17.4,83,0.00,,,-99.99,72.0,HOBO +U30 +Weather +,2013-04-08 01:30:00,
2013-04-07 18:35:00,53.4,48.5,29.65,WSW,240,8.5,16.3,83,0.00,,,-99.99,57.0,HOBO +U30 +Weather +,2013-04-08 01:35:00,
2013-04-07 18:40:00,53.6,48.5,29.66,WSW,240,5.6,11.2,82,0.00,,,-99.99,83.0,HOBO +U30 +Weather +,2013-04-08 01:40:00,
2013-04-07 18:45:00,53.2,48.2,29.66,WSW,244,8.5,19.2,82,0.00,,,-99.99,58.0,HOBO +U30 +Weather +,2013-04-08 01:45:00,
2013-04-07 18:50:00,53.2,48.0,29.66,WSW,240,7.4,17.0,82,0.00,,,-99.99,52.0,HOBO +U30 +Weather +,2013-04-08 01:50:00,
2013-04-07 18:55:00,53.0,47.6,29.65,SW,234,10.1,18.1,82,0.00,,,-99.99,31.0,HOBO +U30 +Weather +,2013-04-08 01:55:00,
2013-04-07 19:00:00,53.0,47.7,29.65,SW,236,7.4,13.4,82,0.00,,,-99.99,23.0,HOBO +U30 +Weather +,2013-04-08 02:00:00,
2013-04-07 19:05:00,52.9,47.8,29.65,WSW,240,7.4,15.9,82,0.00,,,-99.99,19.0,HOBO +U30 +Weather +,2013-04-08 02:05:00,
2013-04-07 19:10:00,52.9,47.7,29.65,SW,227,7.4,15.2,82,0.00,,,-99.99,13.0,HOBO +U30 +Weather +,2013-04-08 02:10:00,
2013-04-07 19:15:00,52.8,47.5,29.65,SW,230,5.1,13.4,82,0.00,,,-99.99,9.0,HOBO +U30 +Weather +,2013-04-08 02:15:00,
2013-04-07 19:20:00,52.7,47.5,29.65,WSW,237,5.6,15.2,82,0.00,,,-99.99,7.0,HOBO +U30 +Weather +,2013-04-08 02:20:00,
2013-04-07 19:25:00,52.6,47.4,29.65,SW,232,6.3,12.3,82,0.00,,,-99.99,3.0,HOBO +U30 +Weather +,2013-04-08 02:25:00,
2013-04-07 19:30:00,52.7,47.8,29.65,WSW,243,4.0,9.6,83,0.00,,,-99.99,1.0,HOBO +U30 +Weather +,2013-04-08 02:30:00,
2013-04-07 19:35:00,52.6,47.8,29.65,WSW,244,2.2,13.0,83,0.00,,,-99.99,1.0,HOBO +U30 +Weather +,2013-04-08 02:35:00,
2013-04-07 19:40:00,52.5,48.0,29.65,WSW,253,3.4,7.8,84,0.00,,,-99.99,1.0,HOBO +U30 +Weather +,2013-04-08 02:40:00,
2013-04-07 19:45:00,52.6,48.1,29.64,WSW,237,4.0,9.6,84,0.00,,,-99.99,1.0,HOBO +U30 +Weather +,2013-04-08 02:45:00,
2013-04-07 19:50:00,52.6,48.3,29.64,SW,234,4.0,10.7,85,0.00,,,-99.99,1.0,HOBO +U30 +Weather +,2013-04-08 02:50:00,
2013-04-07 19:55:00,52.6,48.3,29.63,SW,226,5.6,12.3,85,0.00,,,-99.99,1.0,HOBO +U30 +Weather +,2013-04-08 02:55:00,
2013-04-07 20:00:00,52.6,48.4,29.62,WSW,239,6.7,13.4,85,0.00,,,-99.99,1.0,HOBO +U30 +Weather +,2013-04-08 03:00:00,
2013-04-07 20:05:00,52.6,48.4,29.63,WSW,239,5.1,11.9,85,0.00,,,-99.99,1.0,HOBO +U30 +Weather +,2013-04-08 03:05:00,
2013-04-07 20:10:00,52.6,48.6,29.63,SW,233,4.5,10.1,86,0.00,,,-99.99,1.0,HOBO +U30 +Weather +,2013-04-08 03:10:00,
2013-04-07 20:15:00,52.6,48.6,29.63,SW,229,5.1,10.7,86,0.00,,,-99.99,1.0,HOBO +U30 +Weather +,2013-04-08 03:15:00,
2013-04-07 20:20:00,52.6,48.8,29.63,SW,234,5.6,13.0,86,0.00,,,-99.99,1.0,HOBO +U30 +Weather +,2013-04-08 03:20:00,
2013-04-07 20:25:00,52.4,48.7,29.63,WSW,240,4.5,9.6,87,0.00,,,-99.99,1.0,HOBO +U30 +Weather +,2013-04-08 03:25:00,
2013-04-07 20:30:00,52.5,48.8,29.63,WSW,239,6.3,11.9,87,0.00,,,-99.99,1.0,HOBO +U30 +Weather +,2013-04-08 03:30:00,
2013-04-07 20:35:00,51.8,48.5,29.63,WSW,251,4.5,13.0,88,0.00,,,-99.99,1.0,HOBO +U30 +Weather +,2013-04-08 03:35:00,
2013-04-07 20:40:00,51.2,49.0,29.63,SW,233,6.3,10.7,92,0.00,,,-99.99,1.0,HOBO +U30 +Weather +,2013-04-08 03:40:00,
2013-04-07 20:45:00,51.0,49.5,29.63,SW,236,4.5,11.2,94,0.00,,,-99.99,1.0,HOBO +U30 +Weather +,2013-04-08 03:45:00,
2013-04-07 20:50:00,51.0,49.9,29.63,SW,225,5.1,13.0,96,0.30,,,-99.99,1.0,HOBO +U30 +Weather +,2013-04-08 03:50:00,
2013-04-07 20:55:00,50.8,49.9,29.63,SW,223,2.9,6.3,96,0.00,,,-99.99,1.0,HOBO +U30 +Weather +,2013-04-08 03:55:00,
2013-04-07 21:00:00,51.0,50.3,29.62,SW,229,4.0,8.9,97,0.30,,,-99.99,1.0,HOBO +U30 +Weather +,2013-04-08 04:00:00,
2013-04-07 21:05:00,51.1,50.5,29.62,SW,225,4.5,7.8,98,0.00,,,-99.99,1.0,HOBO +U30 +Weather +,2013-04-08 04:05:00,
2013-04-07 21:10:00,51.2,50.6,29.61,SW,225,4.0,9.6,98,0.00,,,-99.99,1.0,HOBO +U30 +Weather +,2013-04-08 04:10:00,
2013-04-07 21:15:00,51.2,50.7,29.61,SW,218,4.0,8.9,98,0.00,,,-99.99,1.0,HOBO +U30 +Weather +,2013-04-08 04:15:00,
2013-04-07 21:20:00,51.2,50.7,29.60,SW,219,6.7,15.9,98,0.00,,,-99.99,1.0,HOBO +U30 +Weather +,2013-04-08 04:20:00,
2013-04-07 21:25:00,51.5,51.0,29.60,SW,222,6.3,11.2,98,0.00,,,-99.99,1.0,HOBO +U30 +Weather +,2013-04-08 04:25:00,
2013-04-07 21:30:00,51.5,51.0,29.60,SW,222,7.8,13.0,98,0.00,,,-99.99,1.0,HOBO +U30 +Weather +,2013-04-08 04:30:00,
2013-04-07 21:35:00,51.5,51.0,29.60,SW,222,8.9,18.6,98,0.00,,,-99.99,1.0,HOBO +U30 +Weather +,2013-04-08 04:35:00,
2013-04-07 21:40:00,51.5,50.8,29.59,SW,225,10.1,19.7,97,0.00,,,-99.99,1.0,HOBO +U30 +Weather +,2013-04-08 04:40:00,
2013-04-07 21:45:00,51.2,50.7,29.59,SW,225,9.6,16.3,98,0.00,,,-99.99,1.0,HOBO +U30 +Weather +,2013-04-08 04:45:00,
2013-04-07 21:50:00,51.2,50.9,29.59,SW,225,9.6,17.4,99,0.00,,,-99.99,1.0,HOBO +U30 +Weather +,2013-04-08 04:50:00,
2013-04-07 21:55:00,51.1,51.0,29.58,SW,218,8.9,14.5,99,0.00,,,-99.99,1.0,HOBO +U30 +Weather +,2013-04-08 04:55:00,
2013-04-07 22:00:00,51.3,51.3,29.58,SW,220,7.4,14.5,100,0.00,,,-99.99,1.0,HOBO +U30 +Weather +,2013-04-08 05:00:00,
2013-04-07 22:05:00,51.2,51.2,29.57,SW,222,10.1,16.3,100,0.00,,,-99.99,1.0,HOBO +U30 +Weather +,2013-04-08 05:05:00,
2013-04-07 22:10:00,51.2,51.3,29.57,SW,222,10.7,20.4,100,0.00,,,-99.99,1.0,HOBO +U30 +Weather +,2013-04-08 05:10:00,
2013-04-07 22:15:00,51.3,51.3,29.57,SW,225,10.1,18.1,100,0.00,,,-99.99,1.0,HOBO +U30 +Weather +,2013-04-08 05:15:00,
2013-04-07 22:20:00,51.4,51.4,29.56,SW,222,8.5,14.5,100,0.00,,,-99.99,1.0,HOBO +U30 +Weather +,2013-04-08 05:20:00,
2013-04-07 22:25:00,51.4,51.4,29.56,SW,220,9.6,19.7,100,0.00,,,-99.99,1.0,HOBO +U30 +Weather +,2013-04-08 05:25:00,
2013-04-07 22:30:00,51.4,51.4,29.56,SW,226,8.9,17.0,100,0.00,,,-99.99,1.0,HOBO +U30 +Weather +,2013-04-08 05:30:00,
2013-04-07 22:35:00,51.5,51.6,29.56,SW,230,7.8,13.4,100,0.00,,,-99.99,1.0,HOBO +U30 +Weather +,2013-04-08 05:35:00,
2013-04-07 22:40:00,51.7,51.7,29.55,SW,225,9.6,17.0,100,0.00,,,-99.99,1.0,HOBO +U30 +Weather +,2013-04-08 05:40:00,
2013-04-07 22:45:00,51.8,51.8,29.55,SW,230,11.2,20.8,100,0.30,,,-99.99,1.0,HOBO +U30 +Weather +,2013-04-08 05:45:00,
2013-04-07 22:50:00,51.9,52.0,29.55,SW,230,10.1,21.9,100,0.00,,,-99.99,1.0,HOBO +U30 +Weather +,2013-04-08 05:50:00,
2013-04-07 22:55:00,51.9,52.0,29.55,SW,229,10.7,18.6,100,0.00,,,-99.99,1.0,HOBO +U30 +Weather +,2013-04-08 05:55:00,
2013-04-07 23:00:00,51.8,51.8,29.54,SW,233,10.1,20.8,100,0.00,,,-99.99,1.0,HOBO +U30 +Weather +,2013-04-08 06:00:00,
2013-04-07 23:05:00,51.7,51.7,29.54,SW,232,11.2,23.7,100,0.00,,,-99.99,1.0,HOBO +U30 +Weather +,2013-04-08 06:05:00,
2013-04-07 23:10:00,51.7,51.7,29.53,SW,236,10.7,25.3,100,0.00,,,-99.99,1.0,HOBO +U30 +Weather +,2013-04-08 06:10:00,
2013-04-07 23:15:00,51.7,51.7,29.54,WSW,253,7.8,20.8,100,0.00,,,-99.99,1.0,HOBO +U30 +Weather +,2013-04-08 06:15:00,
2013-04-07 23:20:00,51.7,51.7,29.54,WSW,254,7.4,20.8,100,0.00,,,-99.99,1.0,HOBO +U30 +Weather +,2013-04-08 06:20:00,
2013-04-07 23:25:00,52.0,51.8,29.54,WSW,254,7.4,19.2,99,0.00,,,-99.99,1.0,HOBO +U30 +Weather +,2013-04-08 06:25:00,
2013-04-07 23:30:00,52.1,51.5,29.54,West,268,5.6,16.3,97,0.30,,,-99.99,1.0,HOBO +U30 +Weather +,2013-04-08 06:30:00,
2013-04-07 23:35:00,52.2,51.1,29.54,WSW,256,7.4,19.2,96,0.00,,,-99.99,1.0,HOBO +U30 +Weather +,2013-04-08 06:35:00,
2013-04-07 23:40:00,52.1,50.6,29.54,West,261,7.8,18.6,94,0.00,,,-99.99,1.0,HOBO +U30 +Weather +,2013-04-08 06:40:00,
2013-04-07 23:45:00,52.1,50.6,29.54,WSW,258,6.3,14.5,94,0.00,,,-99.99,1.0,HOBO +U30 +Weather +,2013-04-08 06:45:00,
2013-04-07 23:50:00,52.0,50.4,29.54,West,281,6.3,18.6,94,0.00,,,-99.99,1.0,HOBO +U30 +Weather +,2013-04-08 06:50:00,
2013-04-07 23:55:00,50.8,48.4,29.55,West,267,7.4,18.1,91,0.00,,,-99.99,1.0,HOBO +U30 +Weather +,2013-04-08 06:55:00,